User: anonymous   Login
Location: Unspecified
(0.0000°N, 0.0000°E)
Time: 20:12:09
(UTC+00:00)
Language:

STARLINK-35000 - Orbit

View from above orbital plane
View from above orbital plane
View from above satellite
View from above satellite

Ground track
Ground track

The orbit is defined by the following mean orbital elements,

1 65278U          26145.42409544 +.00000000 +00000-0 +38220-3 0 00009
2 65278  97.4464 197.8694 0001006 142.8742 217.2555 15.05659606    03
Epoch (UTC): 25 May 2026 10:10:41
Eccentricity: 0.0001006
inclination: 97.4464°
perigee height: 549 km
apogee height: 550 km
right ascension of ascending node: 197.8694°
argument of perigee: 142.8742°
revolutions per day: 15.05659606
mean anomaly at epoch: 217.2555°

The dashed part of the orbit path shows where the satellite is in the earth's shadow,  

DLR